Lapse_Rate
5.9 5.9 5.9 5.9 5.9 5.9 5.9 5.8 5.6 5.5 5.4 5.2 5.0 4.8 4.8 4.7 4.7 4.7 5.1 5.0 5.2 4.9 5.1 5.4 5.5 5.3 5.4 5.4 5.0 5.3 5.4 5.2 5.9 6.5 7.1 7.7 8.3 8.6 9.6 9.4 9.2 9.4 8.8 9.4 9.0
5.8 5.8 5.8 5.9 5.9 5.8 5.8 5.6 5.4 5.2 5.0 4.8 4.6 4.4 4.4 4.4 4.2 3.8 5.1 4.8 4.4 4.7 5.0 5.2 4.5 4.6 4.8 4.9 5.2 5.5 5.6 5.6 6.3 6.7 7.1 7.5 7.8 8.6 9.3 9.7 9.7 9.6 8.7 9.2 8.3
5.7 5.7 5.8 5.8 5.9 5.8 5.6 5.4 5.4 5.1 4.7 4.4 4.2 4.0 4.0 4.0 3.8 4.0 4.4 4.4 4.8 5.0 5.2 5.4 5.4 5.4 5.3 5.7 6.0 6.2 5.8 6.1 6.4 6.9 7.2 7.2 7.2 8.2 8.9 9.3 9.7 8.9 8.1 8.6 8.5
5.8 5.7 5.8 5.9 5.9 5.8 5.6 5.5 5.2 4.9 4.6 4.2 4.0 4.0 4.0 3.9 4.1 3.6 4.6 4.8 5.2 5.5 5.8 6.0 5.3 5.9 6.3 6.6 6.9 6.9 6.6 6.5 6.5 6.7 7.0 6.9 7.0 7.0 8.1 8.6 9.5 9.6 8.5 8.4 8.7
5.8 6.0 6.0 5.9 5.8 5.7 5.5 5.4 5.1 4.8 4.4 4.1 4.0 4.0 4.1 4.3 4.0 4.2 5.0 5.3 6.1 6.7 7.0 7.1 6.7 7.0 7.0 7.4 7.6 7.6 7.1 7.0 6.7 6.8 6.8 7.0 6.6 6.3 6.8 7.3 8.7 9.5 9.2 8.1 8.2
6.0 6.0 6.1 5.9 5.8 5.7 5.6 5.3 5.0 4.7 4.4 4.1 4.0 4.1 4.2 4.6 3.6 4.2 5.5 6.8 7.0 7.2 6.8 7.0 7.2 7.3 7.3 7.3 7.5 7.8 7.6 7.3 7.0 7.0 6.9 6.9 6.8 7.1 6.5 6.6 7.0 8.0 8.4 7.7 8.1
5.9 6.0 6.2 6.1 5.9 5.7 5.5 5.3 4.9 4.6 4.3 4.2 4.2 4.1 4.5 4.8 4.6 5.0 6.2 6.8 6.7 6.8 7.1 7.3 7.3 7.3 7.5 7.4 7.8 8.0 8.0 7.8 7.5 7.1 7.3 7.2 7.0 6.6 6.5 7.0 6.9 6.7 6.9 7.0 7.2
6.0 6.0 6.1 6.1 5.9 5.6 5.4 5.1 4.8 4.6 4.3 4.1 4.2 4.2 4.7 4.9 5.3 6.4 6.5 6.8 6.9 7.1 7.1 7.1 7.0 6.9 6.9 7.0 7.2 7.6 7.9 7.8 8.1 8.4 7.9 8.2 7.1 6.5 6.7 6.9 7.2 7.1 6.7 6.7 6.8
6.0 6.1 6.2 6.0 5.8 5.6 5.3 4.8 4.7 4.6 4.5 4.1 4.3 4.4 4.1 4.9 6.2 6.6 6.8 6.9 7.1 7.2 7.1 6.9 6.7 6.5 6.7 7.2 7.5 8.0 8.1 8.5 8.8 9.0 8.8 9.1 7.8 6.9 7.2 7.3 6.9 7.0 6.7 6.9 6.8
5.9 6.1 6.1 6.0 5.8 5.6 5.3 4.9 4.6 4.5 4.4 4.6 4.5 4.1 5.0 6.7 6.9 6.7 6.9 7.0 7.1 7.1 7.0 6.7 6.6 6.7 7.3 7.6 8.0 9.4 9.2 9.2 9.0 8.9 8.9 8.8 9.3 8.7 8.7 7.8 7.6 7.0 6.9 7.0 6.9
6.0 6.0 6.1 6.0 6.0 5.7 5.3 4.9 3.8 3.6 3.3 3.6 4.4 5.4 6.2 6.9 6.8 7.0 7.0 7.0 6.8 6.9 7.0 7.0 6.9 6.7 7.7 8.3 7.6 8.3 9.3 9.2 9.4 8.9 8.9 8.7 8.9 8.7 9.6 9.5 8.0 7.4 7.2 7.3 7.1
6.1 6.2 6.2 6.1 6.0 6.0 5.5 4.6 4.4 3.8 4.6 4.6 5.2 6.0 6.4 6.7 6.7 6.9 6.9 7.0 7.1 7.2 7.4 7.5 7.3 8.0 8.2 8.1 8.4 8.8 8.7 8.9 9.3 9.3 9.2 9.1 8.7 9.2 9.2 9.0 9.4 7.9 7.5 7.4 7.4
6.3 6.4 6.3 6.1 6.1 5.7 4.7 4.1 4.3 3.5 3.7 4.7 5.6 6.3 6.9 6.8 6.9 7.1 7.2 7.2 7.2 7.3 7.5 7.4 7.9 8.1 7.8 7.7 7.8 8.3 8.0 8.7 9.1 9.2 9.0 8.7 8.7 8.9 8.8 9.1 8.7 8.9 7.6 7.8 7.7
6.2 6.3 6.2 6.0 5.7 5.3 4.3 4.8 5.0 4.6 4.4 5.8 6.8 7.0 6.9 6.9 7.0 7.2 7.4 7.1 6.8 6.9 7.3 7.4 7.6 7.4 7.3 7.4 8.4 7.8 8.5 8.4 9.0 9.0 7.8 8.8 8.4 8.6 8.9 9.1 8.9 8.5 8.1 7.7 7.5
6.1 6.1 6.0 6.0 6.2 5.4 5.2 5.1 5.2 5.1 5.6 7.0 7.6 7.3 7.0 7.3 7.5 7.8 6.7 6.3 6.5 6.8 6.7 6.8 6.9 6.9 7.0 7.2 7.7 7.7 7.8 7.9 8.1 7.8 8.0 7.8 9.0 8.8 9.4 9.3 9.1 8.6 7.5 7.9 7.9
5.9 6.0 5.9 5.9 6.0 5.4 5.3 5.4 5.5 4.6 7.1 8.0 7.8 7.9 7.8 7.7 8.0 7.4 7.0 6.6 6.6 6.5 6.6 6.6 6.8 6.9 7.2 7.4 7.6 7.8 7.6 7.8 7.9 7.9 8.1 7.6 9.1 8.2 8.7 9.0 9.4 8.9 7.9 7.4 7.9
5.9 5.9 6.0 5.9 6.2 5.8 5.5 5.1 5.2 6.2 7.7 7.7 7.3 7.5 7.7 8.3 7.9 7.4 6.9 6.8 6.6 6.1 6.4 6.9 7.2 7.2 7.0 7.4 7.9 7.6 7.1 7.7 7.6 7.9 7.7 8.7 7.9 8.4 8.8 9.0 8.9 9.5 8.7 7.8 7.6
5.8 6.1 6.0 6.5 5.9 5.8 5.7 5.2 5.9 7.2 7.1 6.8 6.8 7.3 8.3 8.3 7.5 7.3 6.8 6.5 6.6 6.3 6.3 6.3 6.9 7.2 7.1 7.2 7.4 7.5 7.3 7.4 7.9 8.7 8.4 7.3 7.0 8.4 8.9 9.2 9.1 9.4 9.2 8.1 7.3
5.9 6.5 6.5 5.6 5.9 5.7 5.5 6.2 6.6 6.1 6.2 6.2 6.4 7.3 8.3 8.1 7.3 6.6 6.2 6.2 6.3 6.3 6.2 6.0 6.5 6.7 6.9 7.0 6.8 7.1 6.9 7.5 7.4 7.0 7.9 8.4 9.0 9.1 8.9 9.3 9.1 8.9 9.5 9.0 7.4
6.2 6.6 5.9 5.8 5.9 5.8 5.4 6.0 6.2 6.0 5.8 6.2 6.5 6.7 6.8 7.1 6.8 5.9 5.8 6.1 5.7 5.8 5.7 5.6 5.2 6.5 6.9 6.6 7.0 6.9 7.5 6.8 7.0 7.5 8.1 9.2 9.0 8.1 8.3 8.9 8.7 8.9 8.9 9.2 8.3
6.6 5.7 6.4 6.1 6.2 6.0 6.3 6.3 6.0 5.5 5.6 5.9 6.1 6.4 6.7 6.5 6.2 5.8 5.5 6.0 5.5 5.5 5.6 5.6 5.3 5.8 6.3 6.4 6.4 6.8 6.7 7.2 7.1 7.4 7.9 8.3 8.4 8.6 8.1 8.5 8.4 8.2 8.4 9.0 8.8
6.8 5.6 6.2 6.3 6.2 6.1 6.2 5.7 5.6 5.7 5.9 6.1 6.0 6.2 6.2 6.1 5.9 5.9 5.7 5.5 5.3 5.6 5.4 5.5 5.2 5.3 6.1 7.0 6.6 6.9 6.8 6.8 6.7 7.2 8.1 8.3 7.6 8.3 7.8 8.0 7.9 7.9 7.8 8.9 8.7
6.5 5.7 5.7 5.4 5.3 5.2 5.4 5.4 5.9 5.9 6.2 6.1 6.0 6.0 5.9 5.8 5.3 5.5 5.5 5.6 5.4 5.4 5.4 5.4 5.1 5.2 6.3 7.2 6.4 6.6 7.3 7.5 7.1 7.0 6.9 7.7 7.6 8.1 7.6 7.4 7.9 7.3 7.8 8.4 9.5
6.3 5.7 5.9 6.1 5.9 5.4 5.3 5.7 5.8 6.0 6.1 6.0 6.1 6.1 5.7 5.7 5.6 4.9 5.4 5.2 5.2 5.4 5.4 5.7 5.3 5.4 5.5 6.0 6.0 5.7 6.5 6.5 6.6 6.7 7.3 7.8 7.0 8.2 7.4 7.1 7.9 7.6 7.7 8.7 9.0
6.2 5.7 5.5 5.6 5.8 5.2 5.5 5.6 5.9 5.8 5.7 5.9 6.1 6.2 5.8 5.2 5.4 5.1 5.3 5.3 5.4 5.6 5.5 5.5 5.4 5.4 5.4 5.4 5.7 6.1 6.1 6.4 6.5 6.9 7.1 7.3 6.5 6.8 6.5 7.4 8.1 7.7 7.7 8.2 8.4
5.7 5.7 6.4 6.4 5.2 5.4 6.0 6.1 5.8 5.6 5.7 5.7 5.8 5.9 5.8 5.4 5.1 5.0 5.0 5.1 5.2 5.4 5.5 5.5 5.6 5.3 5.7 6.4 6.2 6.4 6.7 6.8 7.2 7.3 7.1 6.9 7.3 7.8 7.0 7.6 7.3 7.0 7.8 7.7 7.2
5.6 5.8 5.7 6.3 5.1 5.5 5.9 5.5 5.7 5.5 5.6 5.6 5.9 5.5 5.7 5.5 5.1 5.0 4.9 5.3 5.4 5.5 5.6 5.5 5.5 5.4 6.3 7.1 6.8 6.4 6.5 6.9 7.0 7.3 7.5 7.3 7.7 7.6 7.7 7.8 7.2 6.6 7.2 7.1 7.2
Wind_Speed
24 24 24 24 23 22 22 19 18 18 17 17 17 18 18 20 23 17 12 5 2 5 10 13 12 11 13 13 18 18 16 19 26 27 24 20 23 25 20 22 25 19 20 5 16
25 24 24 24 23 22 21 20 18 17 17 17 18 18 19 19 17 16 10 12 4 6 11 8 8 5 9 14 14 17 17 25 23 23 22 24 26 24 24 18 17 12 16 11 16
26 26 25 25 24 23 21 20 19 17 16 16 17 18 18 18 13 4 13 13 4 6 11 12 9 9 12 14 16 19 21 23 25 25 23 25 27 26 24 24 17 15 18 24 15
26 26 26 25 25 23 22 19 18 17 16 16 16 17 18 9 8 9 16 13 6 7 11 12 10 12 13 14 15 18 22 23 24 25 25 26 25 26 24 24 16 15 18 22 22
26 26 26 25 25 24 22 20 18 18 18 16 15 14 10 8 16 17 14 11 8 8 10 11 11 13 15 16 17 18 19 19 20 22 23 25 26 25 27 26 23 16 17 18 21
26 27 27 26 25 23 21 19 18 19 19 17 13 10 7 15 9 17 9 11 7 8 12 12 14 13 16 17 18 18 20 21 20 19 20 24 27 23 28 26 25 23 21 14 14
27 27 27 27 26 24 21 18 18 20 19 16 11 8 11 17 9 10 8 9 9 12 10 13 13 15 15 19 17 19 19 19 20 19 24 20 25 28 27 26 25 24 21 18 16
28 27 27 28 27 25 22 19 20 20 16 9 10 9 8 14 15 15 9 11 14 11 10 11 12 16 16 16 21 21 21 20 20 21 23 23 26 27 26 25 27 26 22 20 18
31 30 28 28 27 25 22 19 18 13 5 6 7 10 11 7 10 8 6 16 12 11 12 9 9 14 16 16 16 16 17 23 25 23 20 25 29 26 25 25 26 24 23 22 18
31 31 30 29 28 25 23 19 10 5 8 9 10 8 9 9 1 4 10 10 15 18 16 14 13 14 15 15 15 18 18 17 17 21 19 18 20 22 21 25 26 23 26 23 22
33 32 32 30 27 23 14 4 3 6 13 14 20 16 17 12 8 13 12 14 16 19 16 16 15 15 21 18 19 23 20 23 19 21 21 19 21 25 22 22 25 24 25 25 26
35 35 33 30 27 22 7 6 11 10 15 20 15 10 8 5 9 10 14 15 18 19 17 14 16 21 18 24 24 22 20 24 23 22 20 19 25 24 22 23 20 21 22 25 23
35 36 35 32 27 7 12 6 11 13 9 11 2 7 3 6 10 17 5 12 14 16 18 19 20 17 20 17 18 22 19 22 24 23 23 22 24 23 23 24 25 22 25 22 26
35 36 34 34 6 11 7 13 12 10 5 6 13 4 7 15 18 6 5 10 15 19 20 18 17 18 15 22 20 23 22 23 22 21 18 20 18 22 22 24 24 26 23 24 21
36 36 32 12 11 7 12 13 10 5 3 5 2 4 9 15 14 6 7 7 14 16 14 22 21 22 24 23 16 18 16 18 20 19 20 28 13 18 19 24 25 25 24 27 19
37 35 29 7 7 12 16 11 5 4 2 7 5 16 13 15 10 12 7 6 11 18 21 24 22 22 22 22 21 20 15 21 20 18 17 27 19 21 20 25 24 24 28 25 21
41 36 19 12 8 17 10 7 6 6 17 10 21 19 19 11 11 14 16 13 10 12 15 19 21 20 20 21 18 13 17 10 7 9 16 18 11 18 23 25 28 24 27 23 17
43 34 11 11 17 11 8 9 11 19 16 20 20 22 21 7 13 18 14 16 16 11 13 11 7 6 1 16 10 15 12 10 11 11 12 5 9 9 26 23 24 24 24 22 21
40 2 5 3 12 6 8 9 10 15 15 18 21 16 17 21 17 18 21 17 5 6 6 7 7 12 16 7 2 7 10 19 19 17 15 17 26 17 19 18 23 24 23 28 29
10 9 2 11 9 6 8 4 11 13 14 17 17 15 21 20 17 17 14 10 12 7 9 6 12 13 16 9 17 20 19 5 8 7 15 16 11 8 13 9 17 22 23 29 30
3 5 4 13 7 8 5 10 13 13 11 12 17 17 17 16 16 18 7 17 13 12 12 4 5 9 14 9 19 12 11 12 9 8 7 13 6 9 16 14 16 16 21 16 27
6 6 5 11 5 8 9 11 10 12 11 14 11 14 16 18 18 19 7 11 11 9 8 7 5 11 22 27 24 21 17 16 5 6 12 10 5 10 16 17 12 23 21 16 26
8 11 5 5 5 7 11 13 8 14 12 13 12 16 18 16 7 11 17 17 10 2 4 2 4 7 10 2 14 9 17 18 14 15 19 12 8 6 12 15 13 13 13 21 8
5 7 8 10 9 14 14 13 14 12 12 12 18 16 11 16 14 13 28 8 8 14 25 11 3 11 12 20 16 11 14 13 11 9 14 11 11 15 17 16 19 19 19 14 11
4 6 6 7 11 14 15 13 16 17 14 17 16 16 20 17 22 19 19 23 22 9 5 3 5 12 21 25 23 23 20 20 21 18 14 16 5 7 11 14 15 18 22 19 17
6 5 7 15 15 18 14 13 15 18 18 14 16 20 18 16 16 25 21 22 13 7 4 3 5 12 23 22 18 22 21 20 22 21 17 17 11 13 8 10 15 17 21 25 8
7 9 7 9 14 14 14 18 18 18 8 18 18 16 18 19 23 26 22 22 15 7 6 2 3 5 7 14 9 2 9 18 17 18 15 15 12 10 5 7 15 11 15 17 21
Wind_Direction
349 347 344 342 340 338 336 333 326 321 320 319 319 320 321 320 309 279 258 93 91 9 319 275 242 238 244 247 243 247 243 249 249 256 262 266 268 277 274 230 246 221 257 183 128
344 343 342 339 336 334 332 328 320 317 316 316 318 319 322 322 305 283 117 118 87 343 298 304 299 247 248 246 233 234 247 246 253 265 268 270 274 275 276 260 237 227 252 244 143
341 340 339 337 334 331 328 323 315 312 311 312 313 318 319 317 298 242 147 125 160 292 286 301 289 269 273 260 240 237 245 257 264 269 270 278 284 295 283 276 225 219 246 259 178
338 337 336 334 331 329 324 319 310 305 305 307 310 317 314 293 309 136 157 144 167 283 281 277 265 260 263 266 266 249 257 259 266 270 278 280 289 289 290 286 285 240 216 247 251
334 335 335 332 330 328 323 316 308 303 302 301 304 317 306 246 259 134 143 150 196 238 280 297 303 298 287 295 296 266 270 268 267 271 273 275 274 278 283 289 296 274 267 228 256
333 333 334 333 330 327 323 316 307 300 294 289 289 299 253 269 142 141 184 169 242 255 270 279 296 304 296 290 283 282 287 287 284 279 265 265 264 265 268 278 284 287 285 265 261
333 333 333 332 331 327 322 315 306 297 291 279 259 243 264 253 311 163 182 245 260 271 288 294 309 304 296 290 279 281 268 269 264 260 267 271 265 250 258 267 271 276 277 267 270
332 331 332 333 330 326 320 315 308 302 289 269 219 223 266 287 316 274 220 251 252 229 243 277 296 288 279 282 281 271 271 268 262 256 245 244 252 254 251 247 256 263 269 266 253
331 330 331 332 328 321 315 310 300 295 262 185 202 221 275 163 238 269 239 260 286 266 255 252 279 275 280 260 259 248 252 256 260 253 243 238 239 244 247 249 237 249 258 259 250
330 329 330 329 326 318 313 295 291 234 225 213 253 247 234 316 356 194 252 274 277 275 283 252 238 260 246 241 251 260 256 259 285 290 298 303 285 248 240 238 243 236 234 245 251
329 329 329 328 323 317 320 241 243 198 234 282 289 278 282 324 261 261 260 240 261 262 269 257 237 240 259 263 293 291 284 280 270 254 270 283 291 286 280 236 233 228 243 226 228
329 330 329 327 322 316 281 286 1 312 309 294 257 272 271 298 289 275 250 250 259 275 269 263 254 261 251 287 284 280 285 281 279 278 276 255 248 263 269 270 260 236 233 242 215
330 331 331 327 322 283 244 2 329 325 298 295 229 284 341 325 278 273 350 303 288 282 279 277 277 292 277 254 268 270 264 272 285 290 289 279 272 261 268 260 265 253 244 237 232
331 331 331 327 301 312 17 343 333 354 278 216 202 154 266 230 263 217 267 274 280 283 286 283 287 274 288 288 262 246 250 265 275 283 272 281 274 275 273 245 242 254 230 241 224
331 330 327 324 308 323 342 330 355 268 286 24 31 130 248 263 294 314 185 250 268 288 312 283 284 282 274 266 285 285 293 283 282 269 279 263 257 265 247 243 258 235 254 226 227
330 328 330 304 221 288 331 330 273 251 280 332 359 335 321 300 307 337 320 301 281 283 271 275 277 273 264 262 252 268 267 262 267 265 259 256 258 258 250 258 242 223 241 221 220
329 323 319 314 314 333 333 289 263 259 4 10 337 332 309 307 341 340 329 305 295 296 282 288 288 267 248 260 259 301 248 266 256 233 252 258 275 270 269 242 257 219 229 220 217
327 314 262 246 315 333 302 275 275 356 355 344 334 308 289 7 358 335 326 316 303 292 296 292 309 360 50 246 262 233 264 244 264 264 287 209 225 237 241 245 243 245 226 206 205
323 278 245 25 336 322 289 312 2 341 338 335 324 319 330 344 353 345 335 300 332 341 310 317 275 337 309 282 128 289 264 261 276 272 267 271 276 231 292 234 234 252 241 210 206
321 290 292 331 328 295 290 316 322 354 345 332 322 341 332 318 343 344 320 307 339 1 349 338 286 282 291 310 256 266 269 260 217 272 268 266 313 305 299 268 250 239 255 215 193
252 275 65 348 298 271 296 356 337 340 335 326 311 311 311 334 329 316 278 301 9 345 327 292 223 282 311 261 266 277 271 236 259 249 272 290 284 308 330 316 327 275 282 202 178
302 322 47 330 318 1 350 339 297 310 306 319 310 312 320 325 319 310 295 312 34 336 315 326 288 286 278 275 266 256 247 253 234 263 257 275 251 340 332 326 301 308 250 279 182
310 303 113 306 0 352 328 329 342 323 326 333 324 316 310 322 328 288 303 308 344 282 249 248 247 297 299 216 29 283 263 244 256 267 268 272 283 321 322 316 309 314 252 260 233
291 318 336 317 7 353 337 315 319 337 339 332 308 296 318 304 313 303 298 309 285 285 277 211 240 239 262 277 293 284 296 290 281 264 272 270 312 320 325 338 326 312 322 275 240
326 346 4 306 327 316 299 305 320 328 335 323 316 318 332 320 310 293 304 303 307 324 115 162 264 249 259 268 271 269 261 261 262 262 270 284 213 257 294 312 303 302 305 308 269
351 336 329 302 314 293 306 344 325 323 325 330 315 305 312 306 292 299 306 298 296 251 164 186 262 290 291 280 282 263 251 248 251 255 264 265 262 229 289 310 296 291 322 320 232
348 332 296 290 307 325 335 323 317 324 324 306 320 337 320 314 315 302 287 273 253 183 178 189 282 302 281 322 330 327 284 263 255 252 251 251 270 151 239 327 292 333 317 302 117